Location: Foligno
(42.9600°N, 12.7050°E)
Time: 04:26:14
(UTC+01:00)

ISS - Visible Passes

Search period start: 26 February 2020 00:00
Search period end: 07 March 2020 00:00
Orbit: 415 x 423 km, 51.6° (Epoch: 27 February)

Date Brightness Start Highest point End Pass type
(mag) Time Alt. Az. Time Alt. Az. Time Alt. Az.
26 Feb -3.9 05:11:56 72° W 05:12:13 81° NNW 05:15:37 10° NE visible
27 Feb -1.5 04:26:22 25° ENE 04:26:22 25° ENE 04:27:57 10° ENE visible
27 Feb -2.5 05:59:19 14° WNW 06:01:37 28° NNW 06:04:35 10° NE visible
28 Feb -2.9 05:13:39 36° NNW 05:13:50 36° NNW 05:17:01 10° NE visible
29 Feb -1.5 04:27:54 23° NE 04:27:54 23° NE 04:29:25 10° NE visible
29 Feb -1.9 06:00:52 10° WNW 06:03:27 20° N 06:06:03 10° NE visible
01 Mar -2.1 05:15:03 22° NNW 05:15:35 23° NNW 05:18:21 10° NE visible
02 Mar -1.4 04:29:12 20° NNE 04:29:12 20° NNE 04:30:44 10° NE visible
02 Mar -1.6 06:02:53 10° NW 06:05:20 18° N 06:07:47 10° NE visible
03 Mar -1.7 05:16:16 16° NNW 05:17:25 19° N 05:19:54 10° NE visible
04 Mar -1.4 04:30:22 18° NNE 04:30:22 18° NNE 04:32:06 10° NE visible
04 Mar -1.7 06:04:27 10° NW 06:07:08 21° NNE 06:09:49 10° ENE visible
05 Mar -1.6 05:17:24 13° NNW 05:19:14 19° N 05:21:45 10° NE visible
06 Mar -1.4 04:31:30 18° N 04:31:30 18° N 04:33:44 10° NE visible
06 Mar -2.2 06:05:44 10° NW 06:08:49 32° NNE 06:11:54 10° E visible
